RH
100 100 99 99 99 98 89 96 98 82 70 58 52 54 53 50 47 46 44 42 42 62 55 45 52 48 53 52 66 53 57 62 63 74 68 61 64 59 60 53 54 81 89 94 87 88 88 39 43 49 47 34 32 30
99 99 98 98 97 97 93 92 81 70 62 63 51 54 53 50 46 44 49 49 44 43 70 61 43 44 53 56 55 54 55 59 53 86 81 79 70 70 62 72 40 51 45 50 65 74 36 33 40 34 32 30 29 28
100 95 94 98 87 81 71 71 94 82 78 59 61 60 50 42 40 52 62 60 55 55 61 66 59 56 49 61 52 50 50 51 55 59 69 82 82 70 82 66 56 48 40 48 47 38 36 34 31 26 26 28 27 23
95 92 91 90 90 89 94 95 97 90 78 66 60 49 56 55 56 61 56 57 56 61 77 64 59 57 51 47 38 38 44 58 60 62 60 94 90 58 86 59 65 47 46 51 42 33 27 21 20 25 26 27 24 24
100 99 99 99 99 99 98 98 93 83 74 68 78 69 60 55 53 54 58 56 58 65 87 69 56 61 58 57 45 57 50 65 82 70 91 94 68 65 66 66 65 47 46 50 48 30 32 32 30 30 32 32 32 32
98 98 97 94 92 91 99 78 74 75 70 68 63 55 49 50 54 63 91 59 55 57 60 92 64 71 54 47 48 57 63 72 86 80 83 75 60 59 94 90 41 38 41 44 45 42 40 39 38 37 37 38 37 36
88 73 85 76 84 62 57 71 85 76 66 52 39 42 48 52 64 83 93 69 62 60 66 82 75 68 59 54 53 55 62 81 83 83 81 76 68 58 96 82 49 47 48 50 52 52 52 50 49 47 45 44 41 38
81 74 74 78 87 86 88 89 72 59 54 48 48 56 62 69 75 81 86 77 77 72 70 98 89 63 59 49 59 71 77 79 81 82 81 76 63 72 97 64 53 58 60 69 76 85 92 93 90 80 73 73 67 61
66 67 65 64 69 76 68 64 54 49 52 61 65 79 73 74 87 90 93 91 96 92 92 92 94 88 58 55 56 60 65 98 78 97 90 73 86 94 69 65 70 62 78 96 97 94 86 97 97 94 83 78 92 70
72 77 78 81 78 81 56 52 42 60 68 87 79 85 87 99 96 99 90 90 88 94 88 98 80 88 61 62 64 68 82 97 99 80 74 96 81 55 56 77 74 79 82 96 98 94 92 94 96 93 93 92 94 92
75 72 81 88 80 56 50 67 56 65 82 70 66 96 98 92 95 95 88 89 87 88 88 78 74 85 61 87 92 66 90 95 97 85 92 94 87 97 78 77 79 86 96 97 97 97 98 98 98 99 100 100 98 94
77 76 80 72 57 65 64 70 59 50 47 49 53 77 88 93 91 89 100 93 94 89 70 68 73 79 78 80 91 84 92 94 97 77 98 94 96 72 77 84 86 95 96 96 96 97 96 98 97 97 98 100 100 95
95 90 81 87 81 68 72 52 44 42 46 49 45 65 83 93 98 88 92 91 96 68 69 77 76 74 78 92 97 99 98 93 71 97 94 96 82 79 83 85 88 83 93 95 95 97 97 97 98 98 99 94 94 88
87 78 65 69 76 80 49 38 42 41 46 42 62 73 79 99 97 94 91 88 71 74 79 76 75 75 80 94 96 99 80 87 99 98 96 93 79 85 80 85 96 95 95 96 97 96 96 97 98 97 95 92 88 78
79 57 41 36 35 39 71 52 44 60 57 56 74 86 100 71 84 79 73 71 58 56 66 86 88 90 95 99 98 95 98 96 95 95 95 82 86 80 87 92 97 95 96 97 96 96 96 97 98 98 94 98 88 71
64 49 70 63 72 66 75 69 79 76 75 94 91 97 96 87 85 91 80 70 60 71 87 89 97 100 98 98 97 97 98 96 95 94 90 88 82 86 91 93 95 96 96 96 96 96 96 97 98 99 96 91 83 75
38 40 50 54 70 82 90 87 82 76 92 91 92 98 93 98 95 85 82 72 77 92 100 96 100 86 90 98 98 92 98 98 96 96 86 80 86 86 89 96 94 95 96 96 96 96 96 97 98 99 98 96 92 91
65 70 77 62 66 77 80 82 85 100 97 97 97 92 99 94 93 95 94 82 78 84 86 87 80 99 98 99 91 88 94 95 82 79 74 73 75 84 95 97 95 96 96 96 96 96 97 96 97 98 98 98 98 99
62 68 76 73 75 81 86 92 95 98 98 93 99 100 99 93 89 93 96 97 95 94 90 97 100 99 95 75 94 90 89 83 87 81 84 82 85 94 94 95 97 96 96 96 96 96 96 96 96 97 97 98 98 98
79 75 75 70 70 83 92 96 92 100 99 98 96 93 88 86 97 100 100 100 100 97 98 98 96 76 88 93 100 92 81 80 96 100 92 83 86 94 96 98 96 96 96 96 96 96 96 96 97 97 97 97 99 99
83 78 75 71 72 74 97 84 89 98 100 94 100 94 91 100 100 98 94 95 96 95 99 92 100 99 97 94 85 79 79 94 100 100 99 98 93 94 94 94 96 96 96 96 96 96 96 96 96 97 96 97 97 97
89 86 72 75 98 96 98 95 93 93 94 99 96 96 95 98 96 96 96 97 96 99 97 96 94 89 80 76 79 88 96 95 93 95 98 98 96 94 94 95 96 96 96 96 96 96 96 96 96 97 96 96 96 96
70 74 70 96 100 99 95 91 91 94 96 94 89 96 97 95 98 97 96 95 98 97 96 94 91 90 91 91 93 94 96 96 96 94 96 95 95 96 96 96 96 96 96 96 96 96 95 96 96 96 96 96 96 96
93 97 99 96 97 97 96 85 84 84 86 92 100 98 92 98 96 96 97 96 96 96 95 94 94 90 86 94 95 95 97 96 94 95 96 96 96 96 95 96 96 96 96 96 96 95 96 96 96 96 96 96 96 96
97 92 95 96 99 93 94 96 94 92 98 100 100 98 96 96 97 97 96 95 95 95 94 95 95 96 96 93 94 95 96 96 96 95 96 96 96 96 96 96 96 96 96 96 96 96 96 96 96 96 96 96 96 95
100 93 90 95 97 90 96 87 98 92 99 100 98 87 95 96 97 96 95 95 95 95 95 96 96 93 94 98 96 94 95 95 96 96 96 96 96 96 96 95 96 96 96 96 95 95 96 96 96 96 94 70 38 30
100 97 93 94 89 84 88 91 91 94 100 100 99 98 98 98 97 95 95 96 96 96 96 96 96 96 95 94 96 96 96 96 96 96 96 96 96 96 96 96 95 95 96 96 96 96 94 88 62 42 38 42 42 42
97 99 89 93 89 86 91 99 100 100 100 93 98 100 99 95 95 89 92 96 96 96 96 96 96 96 95 96 96 96 95 96 95 96 96 96 96 96 96 95 96 97 91 67 43 34 32 31 34 38 40 41 46 46
90 91 86 94 91 93 90 92 92 90 92 93 95 97 92 90 84 84 95 95 96 96 95 95 95 96 96 96 96 96 96 96 96 95 95 95 91 75 44 41 42 42 41 42 45 40 39 38 39 39 42 43 47 50
93 89 88 95 98 98 94 93 93 92 91 90 89 89 86 86 89 95 96 96 95 95 96 96 96 96 95 96 96 95 92 88 78 62 45 39 41 45 42 39 39 42 43 40 40 44 43 38 39 41 42 45 45 44
95 94 94 95 95 97 97 95 95 93 92 91 92 95 91 93 94 96 96 96 96 95 96 96 96 96 96 96 95 66 48 42 44 39 36 36 42 46 46 44 43 42 39 37 35 35 36 37 37 38 38 38 39 36
97 96 96 99 96 96 96 96 95 95 96 96 97 99 96 96 96 97 96 96 96 96 96 96 96 95 96 96 95 76 48 43 44 43 42 40 41 43 43 41 39 36 33 31 30 31 29 27 29 29 28 29 30 29
97 99 98 96 96 97 97 96 97 96 98 97 98 98 97 97 95 96 96 96 96 96 95 96 96 96 96 96 83 50 51 39 40 40 41 39 37 35 34 32 30 28 27 27 28 29 29 29 29 29 29 29 29 29
Wind_Speed
26 30 36 34 33 29 26 24 23 20 17 14 12 10 9 7 6 6 7 6 5 4 5 3 4 5 4 3 3 4 3 1 2 1 2 3 3 3 2 3 3 5 5 3 3 5 7 10 5 3 2 7 8 9
32 34 33 33 30 27 24 22 19 16 13 10 8 9 7 5 4 4 5 5 5 4 4 3 2 4 6 5 7 5 4 1 4 2 2 2 2 3 2 2 5 2 3 2 4 2 9 11 7 8 14 8 8 8
37 33 32 30 25 24 21 19 19 15 12 7 10 7 6 5 5 6 9 7 6 4 3 1 3 2 6 11 6 4 2 3 3 2 4 2 1 2 0 3 3 5 5 3 4 3 12 27 28 30 27 19 12 7
30 28 27 28 28 26 25 23 18 13 9 10 8 8 10 8 7 6 7 6 5 5 3 2 2 3 5 7 4 8 10 5 4 2 2 2 2 4 4 4 4 6 5 7 15 20 24 32 24 14 20 20 8 14
34 31 29 29 29 28 24 20 13 9 10 10 10 8 6 5 5 5 5 4 3 2 3 1 1 6 2 4 7 9 10 14 9 3 2 3 4 3 5 2 8 16 16 9 12 24 23 27 37 37 34 35 31 26
31 27 23 21 20 18 18 14 13 13 12 10 7 6 6 6 6 5 4 7 4 4 2 1 2 1 4 3 4 10 12 11 10 5 5 6 13 5 2 4 26 25 24 28 26 34 36 38 36 38 36 36 37 33
26 22 22 20 19 17 16 16 16 12 9 8 8 8 8 8 7 4 5 7 7 3 1 3 4 0 5 3 3 5 8 8 9 5 7 11 9 12 3 13 35 29 29 30 31 34 36 36 30 33 37 38 38 39
24 22 21 21 20 18 17 15 12 11 10 9 9 9 8 8 7 5 5 3 2 3 3 2 3 3 1 3 4 4 5 8 9 8 4 4 4 9 4 8 18 16 23 32 29 28 33 35 39 43 43 41 40 36
21 20 20 19 18 16 15 13 12 11 11 10 12 11 10 4 3 4 3 3 3 3 2 1 2 3 2 4 5 4 5 1 4 4 4 4 2 4 6 6 17 28 29 35 37 35 37 35 35 36 36 37 34 40
23 23 22 20 18 17 15 13 12 12 12 14 14 4 3 3 7 5 4 2 1 1 1 1 1 2 3 2 3 3 2 2 2 4 3 3 4 16 5 14 22 28 32 36 35 31 29 31 31 34 33 32 32 32
22 20 20 18 16 14 14 14 13 14 15 11 4 3 8 8 3 2 2 2 1 2 3 4 4 2 3 1 3 4 2 2 2 3 2 2 2 4 11 20 27 28 33 32 33 38 40 40 41 40 36 33 33 30
21 20 19 17 16 16 15 13 12 10 7 6 6 10 6 3 2 5 1 3 1 3 3 2 2 4 4 3 1 4 2 0 5 2 1 2 2 15 22 27 30 31 35 36 38 40 38 38 36 38 37 33 31 29
22 20 17 17 16 14 13 11 9 9 10 8 3 3 2 2 7 4 2 4 1 3 3 1 2 2 2 3 4 1 1 4 7 2 3 1 14 24 26 31 38 42 38 40 41 37 36 31 27 24 25 23 20 21
19 17 16 14 13 12 11 10 9 8 3 2 2 2 3 3 3 4 4 3 2 3 3 2 3 3 2 1 2 1 4 2 3 3 1 2 25 30 36 37 37 41 41 44 37 38 31 27 20 7 6 12 17 17
17 16 14 12 11 10 9 8 8 6 2 2 2 2 3 4 2 2 4 4 4 4 4 2 3 2 2 1 2 2 3 4 4 2 2 20 28 32 35 37 39 41 42 40 38 33 27 22 14 3 5 8 13 18
16 14 11 11 10 9 10 9 7 4 1 2 1 0 3 0 2 3 6 10 8 6 3 2 1 3 3 3 1 6 2 4 2 4 20 25 31 37 38 40 40 39 39 36 33 26 22 15 9 3 4 6 9 13
10 10 10 9 8 10 10 7 4 1 2 1 3 6 8 6 7 7 6 4 4 5 2 3 2 8 2 2 3 3 2 2 14 21 27 32 37 41 38 38 38 35 35 30 29 23 17 11 5 1 5 8 11 13
9 9 7 7 8 8 7 3 1 1 2 4 3 3 7 7 6 7 7 7 6 6 4 3 2 1 4 3 3 3 8 22 27 31 39 44 42 38 37 36 34 30 29 26 22 17 11 6 3 8 11 12 16 18
9 10 8 7 7 3 2 3 1 1 3 2 6 8 8 9 10 11 11 9 8 8 3 3 2 3 3 5 5 16 25 29 33 40 41 38 34 35 34 32 30 27 26 21 16 10 6 2 5 10 14 17 22 23
9 7 5 5 5 2 1 1 2 1 2 2 4 5 5 5 6 6 6 5 7 6 6 3 4 5 5 9 15 22 27 30 31 32 33 37 36 33 31 29 26 23 19 15 9 5 1 4 7 9 15 20 22 25
8 7 5 3 4 1 0 2 1 1 3 3 3 5 4 4 5 5 4 5 7 4 5 6 6 10 14 19 22 25 27 25 24 26 31 34 33 28 27 26 19 16 12 9 5 3 4 9 10 12 15 19 22 24
5 5 3 4 2 2 1 3 2 2 3 3 4 3 4 3 3 3 3 5 4 3 4 8 15 18 22 23 23 20 20 21 22 24 24 23 26 25 24 19 15 12 8 5 4 6 8 10 13 18 21 23 24 28
5 5 3 5 2 3 2 2 1 1 1 2 4 2 2 2 2 3 3 4 3 3 8 12 16 17 19 18 16 15 15 17 22 23 22 19 18 16 15 11 8 5 3 5 7 12 15 17 21 25 29 31 33 34
4 5 3 3 2 2 1 1 1 1 2 2 2 4 3 2 4 2 2 0 1 8 12 15 17 19 17 15 16 16 17 18 21 20 15 16 12 12 9 7 5 4 3 6 10 15 19 23 27 30 33 36 38 40
2 1 1 1 2 2 3 3 4 3 1 2 2 4 3 3 1 1 1 2 8 12 16 18 18 17 18 19 18 17 14 17 21 17 13 10 7 5 5 5 5 6 6 10 15 20 24 28 33 37 39 41 43 42
1 2 1 3 2 2 4 1 2 4 1 2 4 4 3 2 1 2 1 7 10 17 19 20 21 22 20 17 19 18 15 14 18 12 11 7 5 2 3 8 12 13 12 18 24 29 34 38 40 41 40 37 35 37
1 3 3 3 2 2 2 1 2 2 1 2 3 3 2 1 3 1 5 9 15 18 17 17 16 16 19 18 15 13 10 7 11 13 9 8 10 10 11 15 18 19 19 25 31 34 36 36 35 35 37 36 35 34
1 5 4 5 3 3 3 2 3 4 3 2 1 1 3 4 2 4 7 14 16 15 16 14 13 13 13 12 12 11 7 5 2 5 11 16 19 20 21 22 22 22 22 23 25 27 28 31 33 34 35 35 35 33
2 4 5 2 2 3 3 4 3 3 2 3 3 2 2 2 5 10 11 13 14 15 16 15 14 10 7 7 7 9 9 11 12 16 20 22 23 23 21 22 23 23 23 25 26 26 28 31 33 34 34 34 33 31
2 6 2 3 3 3 3 5 3 4 4 5 4 4 5 6 6 9 9 11 12 14 15 15 14 11 10 9 10 11 12 10 11 12 15 18 18 18 19 20 23 26 27 29 30 30 30 31 31 31 32 31 30 29
3 5 2 2 1 2 3 4 5 5 4 4 6 7 6 5 5 4 6 10 11 12 12 13 11 9 8 8 10 10 10 9 12 14 16 18 19 19 20 21 22 23 25 27 28 29 29 29 29 29 28 28 26 26
3 3 2 0 1 1 2 2 2 2 2 2 2 2 2 3 3 3 5 8 8 9 11 11 10 10 10 10 12 11 13 13 13 14 16 19 20 21 22 24 24 24 25 27 27 27 26 27 27 26 26 25 24 23
2 3 2 1 1 2 1 1 1 2 2 2 2 2 2 2 2 2 5 7 8 9 10 9 9 9 10 12 13 12 12 11 13 15 17 19 21 22 23 24 24 24 25 26 26 25 24 24 24 24 23 22 21 20
Wind_Direction
153 149 148 149 142 142 150 150 147 146 147 143 142 142 143 146 149 152 138 146 150 115 125 144 144 133 135 134 129 158 78 310 78 133 224 243 228 241 293 274 206 179 177 184 195 231 256 8 14 358 12 48 66 49
150 149 147 148 152 148 142 143 145 148 144 145 149 147 148 159 159 172 151 146 153 140 134 158 206 236 220 164 158 162 136 146 208 99 35 341 330 340 50 289 330 257 66 286 234 239 308 17 350 15 332 329 324 347
150 145 151 150 136 134 143 157 158 154 154 154 140 152 143 146 142 135 130 123 127 118 119 118 107 20 237 210 222 186 257 231 201 80 162 221 246 106 281 251 331 313 327 203 8 315 317 309 305 300 299 306 295 256
149 151 148 149 151 156 160 161 152 148 146 152 154 143 132 129 127 133 126 126 122 100 107 139 128 16 5 197 233 200 220 218 289 266 182 165 161 214 221 237 226 238 307 288 286 288 284 280 287 295 302 308 291 307
154 155 160 162 159 154 145 143 145 154 162 153 148 145 138 138 137 133 129 147 151 134 167 204 346 50 27 267 219 261 251 253 256 239 172 216 222 227 241 242 258 240 246 248 259 272 273 279 287 290 288 286 284 286
126 127 129 134 139 143 141 142 153 155 158 154 153 156 150 150 142 133 76 60 150 173 167 58 54 223 26 340 266 260 259 246 227 206 217 228 229 205 235 242 253 262 267 267 267 273 274 277 278 280 281 281 282 279
135 141 140 144 146 148 149 152 151 151 151 151 139 133 137 142 137 98 111 119 83 84 55 21 4 142 331 346 294 273 239 227 226 225 230 237 235 238 222 258 278 290 286 285 286 282 277 275 276 276 276 278 277 274
139 143 143 144 144 145 150 153 154 152 148 143 133 131 127 124 111 95 103 133 82 76 71 81 288 324 268 272 275 246 221 218 222 224 237 227 237 205 251 257 274 291 320 310 301 292 282 282 281 278 276 275 275 274
138 143 143 145 147 152 153 153 153 149 142 131 133 128 117 112 110 106 102 111 94 81 92 119 137 248 281 277 269 258 236 354 250 208 219 200 207 219 234 297 318 305 302 300 301 297 293 284 277 275 278 275 264 266
140 141 141 142 142 144 146 148 145 141 140 136 132 101 91 110 125 113 35 90 88 40 192 237 247 284 293 287 284 299 211 231 239 237 179 220 244 238 229 298 294 301 303 306 297 293 292 285 278 277 269 265 259 261
138 140 143 144 143 145 145 143 139 141 143 147 137 98 127 117 89 87 82 67 8 5 207 231 241 236 280 158 240 257 250 261 294 257 237 244 228 85 306 311 312 310 307 309 303 300 297 287 281 277 270 264 260 253
140 141 143 146 146 145 148 145 143 148 149 144 127 117 128 101 91 82 295 346 109 229 194 204 255 257 284 275 263 270 220 309 248 216 227 241 107 340 330 325 323 320 326 322 322 311 307 299 291 280 270 259 250 250
139 140 139 137 141 144 147 144 139 135 131 128 107 97 102 32 40 107 235 303 337 210 210 195 316 278 276 260 269 324 6 238 303 231 234 157 349 334 331 333 335 335 332 330 325 320 320 318 318 291 260 245 241 227
136 138 138 140 144 145 148 148 144 143 129 106 111 40 122 324 246 188 187 197 191 194 184 241 254 247 256 336 241 92 252 316 293 260 244 4 333 331 337 335 329 328 332 328 324 329 333 337 339 338 204 207 206 198
130 130 131 133 141 151 153 150 155 152 106 103 125 194 209 230 237 225 259 258 237 227 247 247 255 256 296 346 211 318 298 248 226 7 339 323 325 329 331 331 328 328 327 327 331 335 339 345 354 25 146 179 202 200
129 129 124 132 135 138 147 162 157 137 84 100 108 355 206 360 304 233 269 267 234 242 216 223 101 37 269 184 258 224 226 240 10 320 315 323 327 330 330 330 330 328 331 331 336 336 340 343 350 33 124 149 161 176
131 135 142 144 141 139 143 146 147 163 100 155 244 235 254 285 255 263 252 252 205 188 208 126 97 227 311 297 274 226 245 291 317 316 323 327 326 328 331 327 329 334 332 333 337 340 341 340 338 237 189 159 173 179
122 124 139 142 145 145 153 167 155 145 259 212 238 279 235 244 246 248 256 261 233 209 186 214 266 130 225 207 259 274 321 324 325 321 322 323 326 330 328 328 334 335 334 333 336 342 343 352 98 118 128 137 140 144
110 125 131 140 160 144 149 171 213 222 250 250 257 256 258 261 261 263 262 261 239 220 204 216 231 221 237 258 291 313 318 320 318 318 318 321 324 325 329 334 331 333 332 332 338 344 358 22 130 140 140 143 136 138
139 139 155 157 166 168 154 167 226 241 245 273 268 272 266 256 263 267 266 248 229 212 215 221 218 248 267 289 306 312 312 315 318 314 315 320 325 327 330 330 330 334 335 335 340 342 32 118 126 140 146 144 141 139
166 167 174 185 188 181 195 213 226 246 266 245 274 293 284 269 277 279 274 237 218 226 238 244 258 276 294 302 307 308 308 314 314 311 310 311 319 326 329 331 335 337 341 349 5 66 120 122 131 144 149 139 138 138
176 169 152 168 175 216 254 226 242 272 276 291 304 284 281 272 259 221 232 225 241 263 282 308 308 311 307 308 310 312 314 313 313 317 318 321 323 328 327 331 336 340 354 19 66 102 114 125 136 138 137 133 135 133
163 181 174 187 194 203 251 250 259 282 38 312 307 317 264 269 264 290 254 230 258 290 322 321 316 314 311 314 315 319 325 326 325 328 325 323 325 328 329 336 344 351 51 94 120 125 124 134 138 134 133 133 132 130
142 166 187 180 188 178 183 164 279 304 297 3 35 309 303 297 308 251 253 268 307 329 325 327 328 328 330 333 336 340 344 339 337 333 331 327 331 341 345 353 12 47 92 128 132 130 133 133 134 131 130 128 127 125
200 246 188 85 158 137 51 9 360 48 285 286 30 310 312 320 314 272 245 305 331 336 336 337 338 338 334 334 340 346 356 354 346 335 337 334 342 337 6 46 68 84 112 130 129 130 129 131 129 127 125 124 121 117
128 201 135 187 172 142 186 147 199 207 176 325 243 293 323 344 313 264 345 330 333 337 338 337 335 333 336 340 337 343 347 350 351 356 2 7 20 25 95 107 105 103 122 130 131 129 127 125 122 119 116 118 121 122
184 234 169 170 164 169 128 131 148 134 131 213 266 345 26 311 261 308 327 336 336 338 338 336 331 329 330 338 345 345 347 349 358 11 24 55 75 85 102 109 112 114 126 126 125 123 122 121 122 124 123 122 121 119
177 177 163 175 170 193 154 123 147 198 231 199 233 334 189 207 261 338 330 335 337 340 344 345 342 340 342 349 358 8 17 12 8 76 76 89 92 95 98 101 104 112 117 122 124 124 124 123 122 121 120 118 118 118
156 157 165 136 168 203 221 193 211 185 208 210 176 262 275 270 308 319 329 336 342 345 350 360 9 13 17 28 43 54 63 77 96 101 96 93 94 93 99 105 110 113 115 116 116 117 119 120 121 120 118 117 115 115
161 171 167 173 156 228 193 199 213 219 226 234 261 280 283 291 304 318 327 341 353 1 3 4 7 17 37 60 72 67 66 77 85 92 99 102 102 106 111 116 120 122 124 124 122 122 122 121 120 118 116 115 115 113
171 184 177 191 244 228 229 229 239 256 253 253 247 261 278 299 307 315 335 356 0 2 7 20 24 35 55 76 90 68 71 93 108 109 106 106 107 111 112 113 115 118 120 120 121 122 122 120 118 117 116 114 113 111
175 185 189 168 217 262 220 212 239 245 242 235 239 252 282 284 285 300 339 356 2 10 21 27 40 51 67 83 95 84 87 97 106 112 113 114 116 116 117 117 118 119 120 119 118 118 119 116 116 115 113 111 109 107
160 180 203 257 220 187 219 255 265 284 251 249 235 249 242 269 273 310 342 1 10 20 30 42 57 69 77 89 98 101 108 107 108 114 116 117 117 118 119 119 120 120 119 117 117 117 115 114 112 111 110 109 107 106